Regional Weather Roundup
Issued by NWS

Home | Current Version | Previous Version | Graphics & Text | Print | Product List | Glossary On
Versions: 1 2 3 4 5 6 7 8 9 10 11 12 13 14 15 16 17 18 19 20 21 22 23 24 25 26 27 28 29 30 31 32 33 34 35 36 37 38 39 40 41 42 43 44 45 46 47 48 49 50
000
ASUS43 KIND 080459
RWRIN

WEATHER ROUNDUP FOR INDIANA
NATIONAL WEATHER SERVICE INDIANAPOLIS IN
1200 AM EST MON FEB 08 2016

NOTE: "FAIR" INDICATES FEW OR NO CLOUDS BELOW 12,000 FEET WITH NO
SIGNIFICANT WEATHER AND/OR OBSTRUCTIONS TO VISIBILITY.

* - STATION DOES NOT REPORT WEATHER SUCH AS PRECIPITATION OR FOG.

+ - STATION NOT QUALITY CONTROLLED BY THE NATIONAL WEATHER SERVICE.
    USE DATA WITH CAUTION...ESPECIALLY DEWPOINT AND RELATIVE
    HUMIDITY OBSERVATIONS.

INZ001>003-010>013-019-020-080600-
NORTHWEST INDIANA

CITY           SKY/WX    TMP DP  RH WIND       PRES   REMARKS
RENSSELAER +   PTCLDY    34  30  86 SW8       29.74F WCI  27

$$

LMZ046-743>745-080600-
SOUTHERN LAKE MICHIGAN

STATION/POSITION TIME  TEMP    WIND        PRES    WAVE
                       AIR SEA DIR/SP/G            HT
                 (UTC) (F)     (DEG/KT/KT) (MB)    (FT)
BURNS HARBOR     0400   38     250/ 13/ 15 1007.5F
MICHIGAN CITY    0400   35     220/ 12/ 13   N/A

$$

INZ004-005-014>016-021>024-080600-
NORTH CENTRAL INDIANA

CITY           SKY/WX    TMP DP  RH WIND       PRES   REMARKS
GOSHEN         CLEAR     33  28  81 W8        29.71F WCI  26
SOUTH BEND     CLEAR     30  27  88 SW5       29.72F WCI  25

$$

INZ006>009-017-018-025>027-080600-
NORTHEAST INDIANA

CITY           SKY/WX    TMP DP  RH WIND       PRES   REMARKS
ANGOLA *+      CLEAR     36  32  87 W5        29.70S
FORT WAYNE     CLOUDY    36  31  82 W8        29.73F

$$

INZ028-029-035-036-043>045-051>053-080600-
WEST CENTRAL INDIANA

CITY           SKY/WX    TMP DP  RH WIND       PRES   REMARKS
GREENCASTLE +  CLOUDY    37  28  70 W3        29.78F
LAFAYETTE      CLOUDY    37  30  75 W8        29.76F
TERRE HAUTE    CLOUDY    41  31  67 W5        29.79F

$$

INZ030>032-037>040-046>048-054>057-064-065-080600-
CENTRAL INDIANA

CITY           SKY/WX    TMP DP  RH WIND       PRES   REMARKS
GREENWOOD *+   CLOUDY    41  34  75 W7        29.78F
INDIANAPOLIS   CLOUDY    37  31  78 W9        29.76
-EAGLE CREEK   CLOUDY    39  31  72 W6        29.76F
KOKOMO *+        N/A     36  28  75 W10       29.74F
MT COMFORT *+  CLOUDY    36  32  87 SW6       29.77F
SHELBYVILLE    CLOUDY    40  32  73 W5        29.77F

$$

INZ033-034-041-042-049-050-058-059-080600-
EAST CENTRAL INDIANA

CITY           SKY/WX    TMP DP  RH WIND       PRES   REMARKS
MUNCIE         PTCLDY    40  32  73 W8        29.75F

$$

INZ060-061-067>069-081>083-085>088-080600-
SOUTHWEST INDIANA

CITY           SKY/WX    TMP DP  RH WIND       PRES   REMARKS
EVANSVILLE     CLOUDY    47  31  53 W12G18    29.86S
HUNTINGBURG *+ CLOUDY    45  30  57 NW8       29.83F

$$

INZ062-063-066-070>080-084-089>092-080600-
SOUTH CENTRAL AND SOUTHEAST INDIANA

CITY           SKY/WX    TMP DP  RH WIND       PRES   REMARKS
BLOOMINGTON    MOCLDY    41  31  67 W3        29.78F
MADISON *+     CLOUDY    45  27  49 SW6       29.80F
SEYMOUR +      MOCLDY    45  32  61 W10       29.79S

$$




USA.gov is the U.S. government's official web portal to all federal, state and local government web resources and services.